Home   Weather   Pori   Past weeks

Flag for Finland Past Weather in Pori, Finland — Yesterday and Last 2 Weeks

45 °F

Light rain. Fog.

Feels Like: 41 °F
Forecast: 43 / 48 °F
Wind: 7 mph from South

Location: Pori Airport

Current Time: Oct 27, 2016 at 12:05:57 PM

Latest Report: Oct 27, 2016 at 11:20 AM

Visibility: 3 mi

Pressure: 29.95 "Hg

Humidity: 93%

Dew Point: 43 °F

Location of PoriLocation

Past Weather in Pori — Graph


Pori Temperature Yesterday

Maximum temperature yesterday: 36 °F (at 2:20 PM)
Minimum temperature yesterday: 25 °F (at 6:50 AM)
Average temperature yesterday: 31 °F

High & Low Weather Summary for the Past Weeks

High46 °F (Oct 19, 3:50 PM)100% (Oct 14, 9:20 AM)30.66 "Hg (Oct 14, 9:20 AM)
Low25 °F (Oct 26, 6:50 AM)60% (Oct 21, 5:50 PM)29.95 "Hg (Oct 27, 8:20 AM)
Average38 °F81%30.46 "Hg
* Reported Oct 12 10:20 AM — Oct 27 10:50 AM, Pori, Weather by CustomWeather, © 2016

Note: Actual official high and low records may vary slightly from our data, if they occured in-between our weather recording intervals... More about our weather records


Pori Weather History for the Previous 24 Hours

Scroll right to see more
Time TempWeatherWind HumidityBarometerVisibility
10:50 AM
Thu, Oct 27
43 °FDrizzle. Low clouds.7 mph100%29.95 "Hg6 mi
10:20 AM43 °FLight rain. More clouds than sun.8 mph93%29.95 "HgN/A
9:50 AM43 °FDrizzle. Low clouds.7 mph93%29.95 "Hg4 mi
9:20 AM41 °FDrizzle. Low clouds.8 mph100%29.95 "Hg2 mi
8:50 AM41 °FDrizzle. More clouds than sun.8 mph100%29.95 "Hg2 mi
8:20 AM41 °FLight rain. Low clouds.7 mph100%29.95 "HgN/A
7:50 AM43 °FLight rain. Low clouds.6 mph93%29.98 "HgN/A
7:20 AM43 °FLight rain. Low clouds.6 mph93%29.98 "HgN/A
6:50 AM41 °FLight rain. Low clouds.6 mph93%29.98 "HgN/A
6:20 AM41 °FLight rain. Mostly cloudy.8 mph93%29.98 "HgN/A
5:50 AM39 °FLight rain. Low clouds.9 mph100%29.98 "HgN/A
5:20 AM39 °FRain. Low clouds.9 mph93%29.98 "Hg5 mi
4:50 AM37 °FLight rain. Mostly cloudy.8 mph100%30.01 "HgN/A
4:20 AM37 °FLight rain. Overcast.9 mph100%30.01 "HgN/A
3:50 AM37 °FLight rain. Mostly cloudy.9 mph100%30.01 "HgN/A
3:20 AM37 °FRain. Low clouds.6 mph93%30.01 "Hg6 mi
2:50 AM36 °FLight rain. Low clouds.6 mph100%30.04 "HgN/A
2:20 AM36 °FRain. Mostly cloudy.2 mph93%30.04 "Hg3 mi
1:50 AM36 °FRain. Overcast.6 mph93%30.07 "Hg5 mi
1:20 AM36 °FLight rain. Mostly cloudy.7 mph93%30.07 "HgN/A
12:50 AM36 °FLight rain. Mostly cloudy.7 mph93%30.07 "HgN/A
12:20 AM34 °FRain. Low clouds.6 mph93%30.09 "Hg4 mi
11:50 PM
Wed, Oct 26
34 °FPassing clouds.8 mph93%30.09 "HgN/A
11:20 PM34 °FLight rain. Passing clouds.9 mph93%30.09 "HgN/A
10:50 PM34 °FPartly cloudy.7 mph87%30.09 "HgN/A
10:20 PM32 °FPartly cloudy.7 mph93%30.09 "HgN/A
9:50 PM32 °FPassing clouds.6 mph93%30.12 "HgN/A
9:20 PM34 °FPassing clouds.6 mph87%30.12 "HgN/A
8:50 PM34 °FPartly cloudy.7 mph87%30.12 "HgN/A
8:20 PM34 °FMostly cloudy.6 mph87%30.12 "HgN/A
7:50 PM36 °FMostly cloudy.6 mph81%30.12 "HgN/A
7:20 PM36 °FMostly cloudy.6 mph81%30.15 "HgN/A
6:50 PM36 °FMostly cloudy.6 mph81%30.15 "HgN/A
6:20 PM34 °FOvercast.6 mph87%30.15 "HgN/A
5:50 PM36 °FOvercast.6 mph81%30.15 "HgN/A
5:20 PM36 °FOvercast.5 mph81%30.15 "HgN/A
4:50 PM36 °FOvercast.3 mph81%30.15 "HgN/A
4:20 PM36 °FOvercast.3 mph81%30.15 "HgN/A
3:50 PM36 °FOvercast.3 mph81%30.15 "HgN/A
3:20 PM36 °FOvercast.3 mph81%30.15 "HgN/A
2:50 PM36 °FOvercast.2 mph81%30.18 "HgN/A
2:20 PM36 °FOvercast.2 mph81%30.18 "HgN/A
1:50 PM34 °FOvercast.2 mph81%30.18 "HgN/A
1:20 PM34 °FOvercast.1 mph81%30.18 "HgN/A
12:50 PM32 °FOvercast.2 mph87%30.18 "HgN/A
12:20 PM32 °FOvercast.3 mph87%30.18 "HgN/A
Weather by CustomWeather, © 2016

See weather overviewHow to use our weather pages